Regional Weather Roundup
Issued by NWS Charleston, SC

Current Version | Previous Version | Graphics & Text | Print | Product List | Glossary On
Versions: 1 2 3 4 5 6 7 8 9 10 11 12 13 14 15 16 17 18 19 20 21 22 23 24 25 26 27 28 29 30 31 32 33 34 35 36 37 38 39 40 41 42 43 44 45 46 47 48 49 50
566
ASUS42 KCHS 221312
RWRCHS

Regional Weather Roundup
National Weather Service Charleston SC
900 AM EDT SUN APR 22 2018

NOTE: "fair" indicates few or no clouds below 12,000 feet with no
significant weather and/or obstructions to visibility.

Not all stations are quality controlled. Use data with caution,
especially dewpoint observations.

SCZ027-030-031-034>040-042>050-221400-
...Southeast South Carolina...

CITY           SKY/WX    TMP DP  RH WIND       PRES   REMARKS
N Charleston   PTSUNNY   64  55  72 E7        30.31S
Waterfront Prk NOT AVBL
Mount Pleasant PTSUNNY   66  57  72 E6        30.33R
Johns Island   PTSUNNY   64  57  77 NE10      30.31F
Pinopolis        N/A     59  54  82 VRB3      30.24R
Moncks Corner  CLOUDY    61  54  77 E5        30.32F
Summerville    FAIR      61  54  77 NE5       30.32F
Beaufort MCAS  FAIR      66  59  78 E10       30.29S
Beaufort Arpt  FAIR      64  57  77 E12G18    30.28F
Hilton Head Is MOSUNNY   66  61  82 NE9       30.29R
Walterboro     FAIR      63  54  72 E10G18    30.31F
Allendale      FAIR      63  54  72 E9        30.30R

...Southern Midlands and Pee Dee...

CITY           SKY/WX    TMP DP  RH WIND       PRES   REMARKS
Georgetown     PTSUNNY   64  55  72 E9        30.35R
Kingstree      CLOUDY    59  50  72 E5        30.35R
Orangeburg     FAIR      62  53  72 E8        30.32S
Barnwell       FAIR      63  52  67 E8        30.31R
Aiken          CLOUDY    59  52  77 E7        30.35S
Manning        CLOUDY    54  46  76 E3        30.34S
Columbia       CLOUDY    59  53  80 SE8       30.33R
Sumter         CLOUDY    57  47  71 E5        30.32S
Florence       FAIR      57  48  72 E5        30.36R
Myrtle Beach   FAIR      65  53  65 E13       30.36R
N Myrtle Beach FAIR      65  50  58 E10G17    30.34R

$$

GAZ063-065-086>088-099>101-113>116-118-119-134>141-150-221400-
...Southeast Georgia...

CITY           SKY/WX    TMP DP  RH WIND       PRES   REMARKS
Savannah Arpt  PTSUNNY   67  59  75 E9        30.27F
Hunter AAF     FAIR      68  56  65 E14       30.23F
Fort Stewart   FAIR      66  58  75 E8        30.23S
Statesboro     PTSUNNY   65  54  67 E7        30.27S
Sylvania       NOT AVBL
Claxton        PTSUNNY   64  59  85 NE6       30.26S

...CSRA, Central and far Southeast Georgia...

CITY           SKY/WX    TMP DP  RH WIND       PRES   REMARKS
Thomson        PTSUNNY   60  53  77 S8        30.33F
Augusta-Bush   CLOUDY    62  53  72 E7        30.30S
Augusta-Daniel PTSUNNY   63  52  67 E9        30.30F
Swainsboro     PTSUNNY   63  55  77 E8        30.27S
Vidalia        CLOUDY    64  59  82 E7        30.25S
Eastman        DRIZZLE   64  52  65 SE8       30.26S
Hazlehurst     PTSUNNY   63  57  79 E9        30.23S
Alma           RAIN      62  60  93 E5        30.23S FOG
Waycross       CLOUDY    64  61  90 E9        30.22S
Jesup          CLOUDY    64  59  82 CALM      30.24S
Baxley         CLOUDY    61  61 100 E6        30.24R
Brunswick      CLOUDY    68  61  77 E10       30.25R
Saint Simons   CLOUDY    69  63  81 E9        30.24R

$$

SCZ027-028-034-036>038-045-046-048>050-GAZ119-141-221400-
...Lake and Supplemental Coastal Observations...

STATION/POSITION TIME  TEMP    WIND        PRES    WAVE   SWELL
                       AIR SEA DIR/SP/G            HT/PER HT/PER/DIR
                 (UTC) (F)     (DEG/KT/KT) (MB)    (FT/S) (FT/S/D)
Winyah Bay       1145   62      70/  9     1027.0
Lake Murray      1220   56      80/  6/  7 1026.1
ACE Basin NERRS  1145   62     350/  3       N/A
Fort Pulaski     1236   65 65   90/ 10/ 11 1025.5R
Sapelo Island    1200   67     100/  6     1024.0

$$

ANZ835-935-AMZ111-154-330-350-352-354-370-450-454-472-221400-
...C-MAN and Buoy Observations...

STATION/POSITION TIME  TEMP    WIND        PRES    WAVE   SWELL
                       AIR SEA DIR/SP/G            HT/PER HT/PER/DIR
                 (UTC) (F)     (DEG/KT/KT) (MB)    (FT/S) (FT/S/D)
Buoy 41004       1250   68 67  100/ 12/ 16 1026.5R   4/ 7   3/120/ 7
Buoy 41008       1250   66 64  100/ 10/ 12 1024.0R   5/ 6   3/120/ 6
Folly Beach CMAN 1200   64      60/ 12/ 15 1026.7R
Capers Nearshore 1208   64 63   60/ 12/ 16 1026.4R
Fripp Nearshore  1208   64 63   60/ 10/ 14 1025.4R


STATION/POSITION TIME  TEMP    WIND        PRES    WAVE   SWELL
                       AIR SEA DIR/SP/G            HT/PER HT/PER/DIR
                 (UTC) (F)     (DEG/KT/KT) (MB)    (FT/S) (FT/S/D)
5E St. Marys GA  1300      66                N/A     5/ 7
Frying Pan Buoy  1250   67 69  100/ 12/ 16 1027.2R   3/ 8   3/ 80/ 8
Buoy 41025       1250   60 74   10/ 10/ 14 1029.4S   3/ 7   2/ 60/ 7
Cape Lookout NC  1200           70/ 11/ 12 1028.6R
Buoy 41002       1250   66 72   70/ 14/ 17 1026.6R   3/ 4   2/120/ 8
Buoy 41010       1250   72 76   80/ 19/ 23 1023.1R   7/ 7   2/ 80/14
St Augustine FL  1300   69 67  100/ 12/ 14 1023.0R


$$




USA.gov is the U.S. government's official web portal to all federal, state and local government web resources and services.